#timestamp,LO_Frequency,Hit,StdDev 
1457719215.4,286047002.2,N
1457719235.3,286046999.8,N
1457719255.1,286047004.3,N
1457719275.8,286047003.9,N
1457719295.7,286047006.0,N
1457719315.5,286047006.7,Y
1457719335.3,286047004.6,P
1457719355.2,286047004.1,N
1457719375.0,286047007.1,P
1457719375.9,286047007.1,Y
1457719395.7,286047006.0,P
1457719415.6,286047003.1,P
1457719435.4,286046999.9,N
1457719455.2,286047000.1,N
1457719475.1,286047003.9,N
1457719476.0,286047003.9,N
1457719495.8,286047005.4,N
1457719515.6,286047004.6,N
1457719535.5,286047007.1,Y
1457719555.3,286047004.0,P
1457719575.1,286046996.9,P
1457719595.9,286046998.1,N
1457719615.7,286047003.2,N
1457719635.5,286047008.5,N
1457719655.4,286047002.9,N
1457719675.2,286047004.2,N
1457719695.0,286047004.1,N
1457719695.9,286047004.1,N
1457719715.8,286047003.6,N
1457719735.6,286047004.8,N
1457719755.4,286047007.6,N
1457719775.3,286047007.5,N
1457719795.1,286047006.6,N
1457719796.0,286047006.6,N
1457719815.8,286047009.0,N
1457719835.6,286047001.4,N
1457719855.5,286047004.9,N
1457719875.3,286047003.3,N
1457719895.1,286047002.9,N
1457719915.9,286047007.0,N
1457719935.7,286047006.6,N
1457719955.5,286047005.0,N
1457719975.4,286047004.6,N
1457719995.2,286047000.4,N
1457720015.0,286047002.7,N
1457720015.9,286047002.7,N
1457720035.8,286047000.4,N
1457720055.6,286046998.6,N
1457720075.4,286046999.5,N
1457720095.3,286046997.9,N
1457720115.1,286046995.8,N
1457720116.0,286046995.8,N
1457720135.8,286046993.9,N
1457720155.6,286046995.8,N
1457720175.5,286046997.2,N
1457720195.3,286046995.1,N
1457720215.1,286046997.4,N
1457720235.9,286046995.9,N
1457720255.7,286046998.1,N
1457720275.5,286046999.2,N
1457720295.4,286047000.9,N
1457720315.2,286046997.1,N
1457720335.0,286046996.9,N
1457720335.9,286046996.9,N
1457720355.8,286046999.0,N
1457720375.6,286046997.2,N
1457720395.4,286046994.2,N
1457720415.3,286046995.6,N
1457720435.1,286046997.2,N
1457720436.0,286046997.2,N
1457720455.8,286046998.7,N
1457720475.7,286046995.3,N
1457720495.5,286046992.4,Y
1457720515.3,286046990.1,P
1457720535.2,286046990.3,N
1457720555.9,286046990.9,N
1457720575.7,286046989.9,Y
1457720595.6,286046993.5,P
1457720615.2,286046996.4,P
1457720635.1,286046995.8,N
1457720636.0,286046995.8,N
1457720655.8,286046996.3,N
1457720675.6,286046995.2,Y
1457720695.5,286046999.6,P
1457720715.3,286047000.5,N
1457720735.1,286047004.0,N
1457720755.9,286047002.3,N
1457720775.7,286047000.0,N
1457720795.5,286046998.9,N
1457720815.4,286046996.8,N
1457720835.2,286046999.0,N
1457720855.0,286046995.4,N
1457720855.9,286046995.4,N
1457720875.8,286046996.8,N
1457720895.6,286046995.2,N
1457720915.4,286046996.2,N
1457720935.3,286046995.5,N
1457720955.1,286046997.2,N
1457720956.0,286046997.2,N
1457720975.8,286046996.7,N
1457720995.6,286046995.5,N
1457721015.5,286046995.6,N
1457721035.3,286046996.0,N
1457721055.2,286046995.3,N
1457721075.9,286046998.5,N
1457721095.7,286047002.3,N
1457721115.6,286046999.9,N
1457721135.4,286047000.0,N
1457721155.2,286046998.1,N
1457721175.0,286047001.2,N
1457721175.9,286047001.2,N
1457721195.8,286047000.2,N
1457721215.6,286046999.4,N
1457721235.4,286046999.0,N
1457721255.3,286047001.9,N
1457721275.1,286047001.1,N
1457721295.8,286047000.9,N
1457721315.7,286047002.3,N
1457721335.5,286047002.8,N
1457721355.3,286047000.3,N
1457721375.2,286047000.4,N
1457721395.9,286047002.2,N
1457721415.7,286047004.1,N
1457721435.6,286047003.8,N
1457721455.4,286047005.7,N
1457721475.2,286047006.3,N
1457721495.1,286047009.7,Y
1457721496.0,286047009.7,P
1457721515.8,286047007.1,N
1457721535.6,286047006.2,N
1457721555.5,286047007.6,N
1457721575.3,286047003.0,N
1457721595.1,286047009.0,N
1457721615.9,286047010.4,Y
1457721635.7,286047002.1,P
1457721655.5,286047004.6,N
1457721675.4,286047007.1,P
1457721695.2,286047003.3,N
1457721715.0,286047003.4,N
1457721715.9,286047003.4,N
1457721735.7,286047001.7,N
1457721755.6,286047001.6,N
1457721775.4,286047005.1,N
1457721795.2,286047007.3,Y
1457721815.1,286046999.9,P
1457721816.0,286046999.9,N
1457721835.8,286047000.8,N
1457721855.6,286047001.1,N
1457721875.5,286046998.1,N
1457721895.3,286047000.3,N
1457721915.1,286046996.9,N
1457721935.9,286046999.8,N
1457721955.7,286047001.7,N
1457721975.5,286047005.8,Y
1457721995.4,286047003.5,P
1457722015.2,286047002.3,N
1457722035.0,286046998.8,N
1457722035.9,286046998.8,N
1457722055.8,286047000.3,N
1457722075.6,286047001.7,N
1457722095.4,286047002.4,N
1457722115.3,286046997.3,N
1457722135.1,286046999.1,N
1457722136.0,286046999.1,N
1457722155.8,286046997.4,N
1457722175.7,286046997.5,N
1457722195.5,286046995.2,N
1457722215.3,286046994.4,N
1457722235.1,286046996.3,N
1457722255.9,286046995.4,N
1457722275.7,286046997.2,N
1457722295.5,286046997.7,N
1457722315.4,286046998.0,N
1457722335.2,286046995.2,N
1457722355.0,286046997.7,N
1457722355.9,286046997.7,N
1457722375.8,286046997.4,N
1457722395.6,286046995.3,N
1457722415.4,286046992.4,Y
1457722435.3,286046993.0,P
1457722455.1,286046991.2,P
1457722475.8,286046990.6,P
1457722495.7,286046988.1,Y
1457722515.5,286046995.9,P
1457722535.3,286046997.6,N
1457722555.2,286046997.4,N
1457722575.9,286046998.6,N
1457722595.7,286046997.5,N
1457722615.6,286047000.7,N
1457722635.4,286046998.6,N
1457722655.2,286046998.9,N
1457722675.1,286046997.3,N
1457722676.0,286046997.3,N
1457722695.8,286046993.7,Y
1457722715.6,286046997.0,P
1457722735.5,286046998.3,P
1457722755.3,286046997.8,P
1457722775.1,286046995.8,Y
1457722795.9,286046997.6,P
